This is the latest recevied weather packets stored in our database for station/object RV1CJ-14. If no packets are shown the sender has not sent any weather packets the latest 10 day(s).
| Time | Temp. | Humidity | Pressure | Rain* | Wind** | Luminosity | Snow |
|---|---|---|---|---|---|---|---|
| 1777787403 | 15.56° C | 61% | 1003.1 hPa | 0 mm | - | 327 W/m² | - |
| 1777786803 | 14.44° C | 62% | 1003.1 hPa | 0 mm | - | 424 W/m² | - |
| 1777786203 | 14.44° C | 63% | 1003 hPa | 0 mm | - | 311 W/m² | - |
| 1777785603 | 13.89° C | 63% | 1003.1 hPa | 0 mm | - | 137 W/m² | - |
| 1777785003 | 13.89° C | 65% | 1003.2 hPa | 0 mm | - | 121 W/m² | - |
| 1777784403 | 13.33° C | 66% | 1003.3 hPa | 0 mm | - | 111 W/m² | - |
| 1777783803 | 12.78° C | 67% | 1003.3 hPa | 0 mm | - | 105 W/m² | - |
| 1777783203 | 12.22° C | 67% | 1003.3 hPa | 0 mm | - | 97 W/m² | - |
| 1777782603 | 12.22° C | 68% | 1003.3 hPa | 0 mm | - | 83 W/m² | - |
| 1777782003 | 11.67° C | 68% | 1003.3 hPa | 0 mm | - | 185 W/m² | - |
| 1777781403 | 11.11° C | 69% | 1003.3 hPa | 0 mm | - | 223 W/m² | - |
| 1777780803 | 11.11° C | 69% | 1003.5 hPa | 0 mm | - | 102 W/m² | - |
| 1777780203 | 11.11° C | 70% | 1003.4 hPa | 0 mm | - | 114 W/m² | - |
| 1777779604 | 10.56° C | 70% | 1003.5 hPa | 0 mm | - | 39 W/m² | - |
| 1777779003 | 10.56° C | 70% | 1003.6 hPa | 0 mm | - | 23 W/m² | - |
| 1777778403 | 10.56° C | 70% | 1003.5 hPa | 0 mm | - | 19 W/m² | - |
| 1777777803 | 10.56° C | 70% | 1003.5 hPa | 0 mm | - | 18 W/m² | - |
| 1777777203 | 10.56° C | 71% | 1003.6 hPa | 0 mm | - | 14 W/m² | - |
| 1777776603 | 10.56° C | 71% | 1003.7 hPa | 0 mm | - | 12 W/m² | - |
| 1777776003 | 10.56° C | 70% | 1003.8 hPa | 0 mm | - | 11 W/m² | - |
| 1777775404 | 10.56° C | 70% | 1003.9 hPa | 0 mm | - | 9 W/m² | - |
| 1777774803 | 10.56° C | 70% | 1004 hPa | 0 mm | - | 7 W/m² | - |
| 1777774203 | 10.56° C | 70% | 1004 hPa | 0 mm | - | 5 W/m² | - |
| 1777773603 | 10.56° C | 69% | 1004 hPa | 0 mm | - | 0 W/m² | - |
| 1777773003 | 10.56° C | 69% | 1004 hPa | 0 mm | - | 0 W/m² | - |
* Rain latest hour (hover to see other rain measurements)
** Current wind speed in m/s (hover to see current wind gust speed)